Terminal Aerodrome Forecast
Issued by NWS

Home | Current Version | Previous Version | Text Only | Print | Product List | Glossary On
Versions: 1 2 3 4 5 6 7 8 9 10 11 12 13 14 15 16 17 18 19 20 21 22 23 24 25 26
000
FTUS44 KHGX 250606 AAB
TAFLBX
TAF AMD
KLBX 250606Z 2506/2606 00000KT 2SM BR FEW013
     FM250800 VRB02KT 1SM BR BKN010
     FM251700 10008KT P6SM SCT025
     FM251900 13008KT P6SM FEW050
     FM260100 12004KT P6SM MIFG SKC=

USA.gov is the U.S. government's official web portal to all federal, state and local government web resources and services.